Weather in Voznesenka

Russia / Chelyabinsk Oblast     54°59′25″N   61°21′53″E
temp.,
°C
wind,
m/s
gust,
m/s
humid.,
%
clouds,
%
prec.,
mm/h
press.,
hPa
HPBL,
m
27 february, sat
sat2723:00−28s459415 0.0 102770
02:00−27s47969 0.0 1025112
05:00−27s499654 0.0 1024156
08:00−28sse5998100 0.0 1022177
11:00−24sse5897100 0.1 1020314
14:00−19sse61097100 0.4 1016506
17:00−14se61194100 1.3 1014715
20:00−12sse71394100 0.6 1011661
28 february, sun
sun2823:00−11se61194100 1.3 1009520
02:00−11se51095100 0.4 1007370
05:00−12ese3796100 0.6 1006204
08:00−12e369695 0.3 1005163
11:00−10e469497 0.7 1004313
14:00−8ene4693100 0.4 1004409
17:00−9ne5794100 0.7 1005466
20:00−11nne4895100 0.4 1006327
1 march, mon
mon123:00−14nne489599 0.7 1009279
02:00−16nne479690 0.2 1011246
05:00−17n369792 0.3 1013232
08:00−18n3697100 0.1 1015228
11:00−17n3492100 0.3 1016315
14:00−15nne2388100 0.1 1017406
17:00−14ne2392100 0.3 1017320
20:00−17ne2297100 0.2 101820
2 march, tue
tue223:00−18n1197100 0.3 101920
02:00−22nw1110094 0.0 101820
05:00−23wnw1210047 0.0 101820
08:00−22w129849 0.0 101720
11:00−16sw119151 0.0 1016177
14:00−13ssw238591 0.0 1015415
17:00−12s349096 0.0 1014302
20:00−18ssw349843 0.0 101436
3 march, wed
wed323:00−19ssw349521 0.0 101340
02:00−20s349733 0.0 101255
05:00−18s369565 0.0 1011121
08:00−16s3792100 0.0 1010165
11:00−11s5893100 0.1 1010349
14:00−8s5792100 0.1 1009436
17:00−8s5992100 0.1 1009443
20:00−9s41095100 0.1 1008357